User: anonymous   Login
Location: Unspecified
(0.0000°N, 0.0000°E)
Time: 09:05:55
(UTC+00:00)
Language:

NOSS 2-1 (D) - Orbit

View from above orbital plane
View from above orbital plane
View from above satellite
View from above satellite

Ground track
Ground track

The orbit data is extracted from the following two-line orbital elements,

1 20692U 90050D   19017.24434103 0.00000080  00000-0  15564-4 0    08
2 20692  63.3284 131.9936 0837000  38.9178 321.0822 13.41865520    06
Epoch (UTC): 17 January 2019 05:51:51
Eccentricity: 0.0837000
inclination: 63.3284°
perigee height: 476 km
apogee height: 1728 km
right ascension of ascending node: 131.9936°
argument of perigee: 38.9178°
revolutions per day: 13.41865520
mean anomaly at epoch: 321.0822°
orbit number at epoch: 0

The dashed part of the orbit path shows where the satellite is in the earth's shadow,  

DLR